Home   Weather   Austin   Past weeks

Flag for USA Past Weather in Austin, Texas, USA — Yesterday and Last 2 Weeks

Now
66 °F

Sunny.


Feels Like: 66 °F
Forecast: 57 / 80 °F
Wind: 3 mph from North

Location: Camp Mabry / Austin City

Current Time: Sep 30, 2016 at 10:15:01 AM

Latest Report: Sep 30, 2016 at 8:51 AM


Visibility: 10 mi

Pressure: 30.20 "Hg

Humidity: 63%

Dew Point: 53 °F

Location of AustinLocation

Past Weather in Austin — Graph

°F

Austin Temperature Yesterday

Maximum temperature yesterday: 85 °F (at 2:51 PM)
Minimum temperature yesterday: 64 °F (at 5:51 AM)
Average temperature yesterday: 73 °F

High & Low Weather Summary for the Past Weeks

 TemperatureHumidityPressure
High99 °F (Sep 19, 2:51 PM)100% (Sep 26, 7:51 AM)30.21 "Hg (Sep 26, 7:51 AM)
Low61 °F (Sep 30, 3:51 AM)29% (Sep 28, 4:51 PM)29.84 "Hg (Sep 16, 4:51 PM)
Average80 °F70%29.99 "Hg
* Reported Sep 15 8:51 AM — Sep 30 8:51 AM, Austin, Weather by CustomWeather, © 2016

Note: Actual official high and low records may vary slightly from our data, if they occured in-between our weather recording intervals... More about our weather records

Advertising

Austin Weather History for the Previous 24 Hours

Scroll right to see more
 ConditionsComfort  
Time TempWeatherWind HumidityBarometerVisibility
8:51 AM
Fri, Sep 30
66 °FSunny.3 mph63%30.20 "Hg10 mi
7:51 AM61 °FSunny.3 mph70%30.19 "Hg10 mi
6:51 AM61 °FClear.5 mph70%30.18 "Hg10 mi
5:51 AM62 °FClear.No wind67%30.18 "Hg10 mi
4:51 AM62 °FClear.No wind67%30.19 "Hg10 mi
3:51 AM61 °FClear.No wind70%30.18 "Hg10 mi
2:51 AM65 °FClear.5 mph59%30.17 "Hg10 mi
1:51 AM66 °FClear.5 mph56%30.17 "Hg10 mi
12:51 AM67 °FClear.5 mph57%30.18 "Hg10 mi
11:51 PM
Thu, Sep 29
68 °FClear.3 mph57%30.19 "Hg10 mi
10:51 PM68 °FClear.3 mph57%30.20 "Hg10 mi
9:51 PM70 °FClear.3 mph51%30.19 "Hg10 mi
8:51 PM71 °FClear.3 mph49%30.17 "Hg10 mi
7:51 PM74 °FClear.3 mph45%30.16 "Hg10 mi
6:51 PM78 °FSunny.5 mph37%30.16 "Hg10 mi
5:51 PM81 °FSunny.12 mph35%30.15 "Hg10 mi
4:51 PM83 °FSunny.6 mph37%30.14 "Hg10 mi
3:51 PM85 °FSunny.6 mph35%30.15 "Hg10 mi
2:51 PM85 °FSunny.10 mph34%30.16 "Hg10 mi
1:51 PM84 °FSunny.10 mph37%30.18 "Hg10 mi
12:51 PM82 °FSunny.8 mph41%30.20 "Hg10 mi
11:51 AM79 °FSunny.7 mph47%30.20 "Hg10 mi
10:51 AM76 °FSunny.7 mph50%30.21 "Hg10 mi
Weather by CustomWeather, © 2016

See weather overviewHow to use our weather pages